Temp
63 68 74 76 77 77 77 77 76 76 77 77 76 76 76 76 76 76 76 76 77 77 78 77 76 76 75 75 75 75 75 75 74 75 75 76 77 76 76 75 73 72 76
66 69 73 75 77 77 76 76 76 76 76 76 76 76 76 76 76 76 76 76 77 76 77 76 76 75 74 74 73 74 74 74 74 74 74 74 75 77 77 76 75 75 76
67 70 72 74 76 76 75 75 76 76 76 76 76 76 76 76 76 76 75 76 76 76 77 76 75 75 74 74 74 74 74 74 73 73 73 71 71 75 75 74 75 75 75
69 70 71 72 75 75 75 75 75 76 76 76 76 76 76 76 76 76 75 75 76 76 76 76 75 74 74 74 73 73 74 74 71 70 69 70 73 74 75 75 74 74 74
68 69 70 72 75 75 75 75 75 75 76 76 76 76 76 75 75 75 75 75 76 75 76 75 75 74 74 73 73 73 74 71 69 69 69 68 70 73 73 72 72 72 71
67 69 70 73 74 74 74 75 75 75 75 76 76 76 75 75 74 74 74 75 75 75 75 75 74 74 73 73 74 73 71 69 67 66 63 69 69 73 73 72 71 71 70
66 68 69 72 73 74 74 74 75 75 75 75 75 75 74 74 74 74 74 74 74 73 74 75 74 73 73 72 72 71 70 68 66 62 62 64 69 72 72 72 72 71 71
67 68 69 69 70 72 73 73 74 74 74 74 74 74 74 74 73 73 73 73 74 73 74 73 73 72 72 71 70 69 68 67 64 61 61 67 70 72 71 71 70 70 70
67 67 67 68 69 68 70 70 71 72 73 73 73 73 72 72 72 72 72 72 73 73 73 72 71 71 70 69 68 67 65 65 63 62 63 66 70 71 70 70 70 70 70
66 67 66 67 68 67 67 66 68 69 70 70 69 68 67 68 68 68 67 70 72 72 71 71 70 70 69 67 66 65 64 63 58 58 59 66 69 70 70 70 70 69 69
64 65 65 66 66 66 66 65 65 66 66 66 65 64 62 61 62 63 64 68 70 70 70 69 69 67 65 64 64 63 62 57 58 58 60 67 69 70 69 69 69 68 68
65 64 65 65 66 65 67 65 65 64 63 63 62 61 60 59 59 61 61 64 67 67 68 68 66 63 59 55 56 59 57 57 57 58 64 67 69 69 69 68 68 68 67
66 65 64 65 66 67 67 66 64 63 61 60 60 60 59 58 57 58 58 58 59 59 58 59 56 55 55 54 54 55 56 56 56 60 64 66 68 68 68 68 68 67 67
61 63 63 64 66 67 68 67 67 65 61 59 59 59 57 56 55 55 56 56 56 55 53 53 53 53 54 54 54 54 55 58 57 57 62 63 67 69 68 68 67 67 67
61 61 62 64 66 67 66 67 67 67 63 60 59 59 58 56 55 55 55 55 55 54 53 52 52 52 52 53 53 53 54 56 59 57 60 60 65 68 68 68 67 67 66
62 62 62 63 64 67 67 67 67 67 66 61 59 59 58 57 55 54 54 54 54 53 53 52 52 51 51 51 51 52 52 54 55 55 55 57 63 66 68 68 67 67 66
61 62 62 63 64 64 66 67 68 67 66 65 60 59 59 58 56 55 54 56 55 57 56 55 54 54 51 52 52 52 51 51 52 54 55 54 58 62 65 68 67 67 67
60 61 62 64 63 63 64 65 67 68 67 66 64 61 62 62 60 58 58 58 57 56 56 55 54 52 52 52 52 52 51 52 53 53 53 52 52 55 62 65 66 66 67
60 60 61 63 63 63 63 64 64 64 66 66 66 63 63 63 62 60 59 58 57 56 56 54 52 53 51 50 51 50 50 50 51 51 51 51 49 50 52 59 62 63 66
58 60 62 62 63 63 63 62 62 61 64 63 65 65 62 64 63 61 59 58 57 56 55 54 53 50 51 50 51 49 47 47 47 47 48 49 49 48 50 51 51 52 61
56 57 60 61 62 63 62 62 63 62 63 62 62 63 65 63 63 61 60 58 57 56 56 55 51 50 47 47 47 46 46 46 46 46 47 44 44 46 45 46 50 49 52
56 58 59 61 62 63 64 64 62 64 64 63 62 62 64 64 64 61 61 58 57 57 55 53 52 47 47 48 45 42 43 44 45 46 42 44 46 42 43 44 46 48 49
50 52 57 60 61 63 65 59 56 57 56 57 57 60 62 64 64 63 62 61 57 58 56 54 54 52 48 45 47 47 39 40 38 42 44 45 43 44 45 43 43 45 46
51 49 53 56 58 60 61 60 60 62 62 62 61 58 57 60 63 64 63 61 59 58 57 55 54 54 53 46 46 48 46 45 43 41 39 39 44 42 44 44 43 45 44
47 47 48 52 55 57 60 61 59 58 58 55 54 55 54 54 59 61 63 61 59 58 58 56 53 52 53 51 47 43 46 44 42 40 45 43 37 39 45 43 44 43 43
46 46 48 50 52 55 57 56 57 57 55 52 51 51 52 52 53 55 60 61 60 59 58 57 54 53 53 53 52 51 48 43 43 42 40 43 41 38 41 42 41 43 42
MSLP
1019.86 1019.56 1019.39 1019.47 1019.71 1019.78 1020.07 1020.19 1020.24 1020.24 1020.38 1020.54 1020.40 1020.39 1020.56 1020.57 1020.70 1020.70 1020.80 1020.96 1021.05 1021.09 1021.13 1021.24 1021.44 1021.43 1021.42 1021.44 1021.51 1021.58 1021.67 1021.76 1021.92 1022.01 1022.02 1021.88 1021.86 1022.07 1022.11 1022.07 1021.92 1021.91 1021.91
1019.26 1019.55 1019.67 1019.77 1019.87 1019.99 1020.14 1020.42 1020.43 1020.58 1020.62 1020.60 1020.60 1020.58 1020.76 1020.93 1021.08 1021.17 1021.25 1021.39 1021.40 1021.55 1021.61 1021.66 1021.94 1022.12 1022.18 1022.27 1022.31 1022.32 1022.35 1022.39 1022.41 1022.44 1022.44 1022.45 1022.28 1022.22 1022.23 1022.23 1022.18 1022.21 1022.30
1019.27 1019.53 1019.81 1019.90 1020.00 1020.26 1020.52 1020.58 1020.67 1020.71 1020.73 1020.72 1020.89 1020.74 1021.05 1021.31 1021.44 1021.61 1021.78 1021.82 1021.77 1021.93 1021.93 1022.08 1022.27 1022.56 1022.71 1022.70 1022.84 1022.86 1022.93 1022.97 1022.96 1022.96 1022.83 1022.88 1022.73 1022.67 1022.83 1022.84 1022.76 1022.83 1022.91
1019.28 1019.55 1019.83 1020.00 1020.19 1020.43 1020.61 1020.70 1020.81 1020.98 1020.98 1021.01 1021.00 1021.16 1021.44 1021.65 1021.82 1022.00 1022.17 1022.22 1022.23 1022.32 1022.30 1022.46 1022.59 1022.92 1023.09 1023.14 1023.26 1023.38 1023.36 1023.29 1023.39 1023.41 1023.48 1023.50 1023.23 1023.28 1023.34 1023.43 1023.53 1023.62 1023.62
1019.44 1019.65 1019.95 1020.12 1020.42 1020.72 1020.83 1020.97 1021.21 1021.33 1021.38 1021.43 1021.36 1021.66 1021.84 1022.04 1022.21 1022.36 1022.61 1022.67 1022.64 1022.72 1022.82 1022.95 1023.08 1023.24 1023.40 1023.54 1023.67 1023.63 1023.66 1023.73 1023.85 1023.92 1024.01 1024.11 1024.00 1024.00 1024.19 1024.47 1024.36 1024.31 1024.43
1019.53 1019.76 1020.16 1020.33 1020.49 1020.80 1021.22 1021.41 1021.50 1021.59 1021.74 1021.79 1021.85 1021.97 1022.20 1022.41 1022.69 1022.75 1023.01 1023.06 1023.08 1023.26 1023.24 1023.31 1023.53 1023.68 1023.76 1023.88 1023.97 1023.91 1024.21 1024.34 1024.43 1024.58 1024.65 1024.65 1024.64 1024.72 1024.75 1024.87 1024.98 1025.08 1025.11
1019.65 1019.86 1020.20 1020.47 1020.70 1020.92 1021.25 1021.52 1021.68 1021.78 1021.86 1022.03 1022.12 1022.31 1022.56 1022.76 1023.04 1023.08 1023.30 1023.46 1023.46 1023.68 1023.68 1023.74 1023.86 1024.03 1024.16 1024.29 1024.34 1024.47 1024.74 1024.80 1024.91 1025.26 1025.24 1025.29 1025.22 1025.24 1025.34 1025.50 1025.58 1025.69 1025.80
1019.63 1019.95 1020.19 1020.56 1020.89 1021.11 1021.40 1021.68 1021.90 1021.96 1022.03 1022.26 1022.39 1022.54 1022.75 1022.99 1023.25 1023.38 1023.48 1023.72 1023.72 1023.94 1023.89 1024.09 1024.29 1024.27 1024.44 1024.65 1024.83 1025.07 1025.31 1025.38 1025.60 1025.82 1025.74 1025.76 1025.80 1025.79 1025.98 1026.09 1026.23 1026.34 1026.42
1019.73 1020.01 1020.30 1020.65 1020.99 1021.21 1021.55 1021.77 1022.03 1022.21 1022.25 1022.41 1022.67 1022.87 1023.08 1023.36 1023.58 1023.83 1023.90 1023.97 1024.01 1024.19 1024.25 1024.41 1024.70 1024.77 1024.91 1025.16 1025.44 1025.67 1025.80 1025.88 1026.19 1026.33 1026.32 1026.32 1026.34 1026.39 1026.58 1026.68 1026.78 1026.80 1026.87
1020.02 1020.21 1020.46 1020.77 1021.10 1021.39 1021.68 1021.94 1022.11 1022.42 1022.56 1022.85 1023.00 1023.26 1023.48 1023.78 1024.03 1024.13 1024.27 1024.37 1024.39 1024.65 1024.74 1024.92 1025.15 1025.25 1025.33 1025.49 1025.69 1025.93 1026.05 1026.27 1026.52 1026.74 1026.79 1026.76 1026.80 1026.92 1027.09 1027.14 1027.19 1027.29 1027.32
1020.37 1020.36 1020.56 1020.85 1021.19 1021.44 1021.75 1022.04 1022.34 1022.51 1022.79 1023.09 1023.30 1023.60 1023.80 1024.08 1024.35 1024.45 1024.55 1024.67 1024.73 1025.10 1025.03 1025.26 1025.58 1025.80 1025.88 1025.99 1026.10 1026.23 1026.29 1026.62 1026.81 1027.05 1027.10 1027.04 1027.24 1027.37 1027.52 1027.57 1027.66 1027.73 1027.78
1020.31 1020.54 1020.49 1020.70 1021.07 1021.46 1021.78 1022.16 1022.44 1022.59 1022.92 1023.23 1023.52 1023.80 1023.98 1024.28 1024.54 1024.65 1024.88 1024.96 1025.13 1025.41 1025.46 1025.64 1025.94 1026.19 1026.36 1026.63 1026.75 1026.74 1026.88 1027.02 1027.17 1027.32 1027.23 1027.36 1027.56 1027.65 1027.84 1028.00 1028.08 1028.14 1028.24
1019.85 1020.34 1020.53 1020.68 1020.95 1021.25 1021.63 1022.02 1022.42 1022.70 1022.94 1023.30 1023.61 1023.85 1024.13 1024.54 1024.81 1025.09 1025.33 1025.55 1025.74 1025.93 1026.05 1026.19 1026.42 1026.59 1026.72 1026.90 1027.11 1027.19 1027.27 1027.33 1027.42 1027.44 1027.30 1027.44 1027.85 1027.98 1028.18 1028.24 1028.29 1028.42 1028.44
1019.62 1019.88 1020.34 1020.56 1020.85 1021.15 1021.46 1021.85 1022.19 1022.65 1023.01 1023.40 1023.69 1023.92 1024.30 1024.75 1025.11 1025.51 1025.74 1025.91 1026.11 1026.33 1026.57 1026.77 1026.94 1027.03 1027.12 1027.21 1027.31 1027.44 1027.47 1027.46 1027.70 1027.73 1027.58 1027.49 1027.58 1027.96 1028.16 1028.31 1028.46 1028.57 1028.60
1019.50 1019.75 1019.95 1020.19 1020.55 1020.93 1021.42 1021.67 1022.06 1022.46 1022.97 1023.35 1023.73 1023.96 1024.24 1024.74 1025.25 1025.54 1025.83 1026.06 1026.27 1026.52 1026.75 1027.07 1027.24 1027.38 1027.44 1027.45 1027.49 1027.56 1027.61 1027.50 1027.51 1027.72 1027.63 1027.61 1027.60 1027.77 1028.14 1028.31 1028.43 1028.55 1028.71
1019.12 1019.31 1019.71 1020.11 1020.30 1020.63 1020.97 1021.30 1021.72 1022.15 1022.60 1023.23 1023.58 1023.80 1024.15 1024.60 1025.07 1025.45 1025.85 1026.11 1026.33 1026.55 1026.75 1026.85 1027.04 1027.30 1027.53 1027.69 1027.75 1027.65 1027.60 1027.56 1027.49 1027.64 1027.65 1027.45 1027.25 1027.25 1027.87 1028.17 1028.31 1028.45 1028.65
1018.57 1019.09 1019.27 1019.59 1019.89 1020.27 1020.60 1021.07 1021.45 1021.84 1022.29 1022.73 1023.33 1023.67 1023.99 1024.39 1024.79 1025.21 1025.66 1025.92 1026.08 1026.25 1026.55 1026.86 1027.14 1027.33 1027.58 1027.69 1027.83 1028.02 1028.02 1027.73 1027.53 1027.58 1027.56 1027.63 1027.43 1027.18 1027.40 1027.73 1028.07 1028.18 1028.32
1018.38 1018.53 1018.95 1019.24 1019.54 1019.84 1020.18 1020.55 1020.93 1021.37 1021.79 1022.18 1022.71 1023.26 1023.62 1024.03 1024.46 1024.99 1025.31 1025.51 1025.76 1026.18 1026.46 1026.84 1027.20 1027.56 1027.73 1027.79 1027.87 1027.90 1028.17 1028.29 1028.16 1028.07 1028.09 1028.01 1027.98 1027.59 1027.18 1027.75 1027.83 1028.06 1028.09
1017.72 1018.16 1018.59 1018.83 1019.15 1019.49 1019.82 1020.27 1020.63 1020.95 1021.32 1021.75 1022.20 1022.58 1022.76 1023.27 1023.81 1024.34 1024.70 1024.95 1025.40 1025.87 1026.22 1026.61 1027.08 1027.20 1027.72 1028.03 1028.19 1028.30 1028.18 1028.04 1028.07 1028.05 1027.97 1027.98 1027.89 1027.94 1027.22 1027.21 1027.49 1027.74 1027.92
1017.37 1017.69 1018.00 1018.47 1018.75 1019.12 1019.56 1020.13 1020.50 1020.84 1020.96 1021.25 1021.52 1021.93 1022.33 1022.41 1022.95 1023.65 1024.11 1024.46 1024.91 1025.48 1025.94 1026.22 1026.56 1027.20 1027.49 1027.89 1028.24 1028.61 1028.57 1028.51 1028.23 1027.81 1027.84 1027.82 1027.69 1027.33 1027.14 1026.71 1027.19 1027.53 1027.55
1016.97 1017.27 1017.34 1017.86 1018.19 1018.90 1019.44 1019.92 1020.29 1020.36 1020.67 1020.91 1021.03 1021.29 1021.69 1022.17 1022.30 1022.75 1023.27 1023.86 1024.34 1024.60 1024.78 1025.40 1026.24 1026.83 1027.10 1027.74 1028.51 1028.29 1028.27 1028.11 1028.06 1028.24 1027.50 1027.17 1027.49 1027.50 1027.35 1026.67 1026.43 1026.76 1027.15
1016.11 1016.39 1016.99 1017.06 1017.63 1018.04 1018.50 1018.77 1019.25 1019.66 1020.06 1020.30 1020.61 1020.87 1021.02 1021.33 1021.72 1022.25 1022.60 1023.04 1023.48 1023.99 1024.32 1024.74 1025.35 1026.21 1026.84 1027.19 1027.44 1028.38 1028.50 1027.68 1027.29 1026.98 1027.51 1027.49 1026.73 1026.75 1027.21 1026.94 1026.44 1026.10 1026.36
1016.12 1016.10 1016.32 1016.44 1016.87 1017.31 1017.77 1018.52 1019.15 1019.65 1020.04 1020.32 1020.47 1020.47 1020.38 1020.67 1020.97 1021.35 1021.82 1022.11 1022.55 1022.97 1023.46 1023.85 1024.42 1025.06 1025.67 1026.26 1026.40 1026.83 1027.93 1027.32 1026.67 1026.32 1026.12 1026.22 1026.30 1026.73 1025.95 1026.46 1026.51 1026.38 1025.82
1015.62 1016.05 1016.19 1016.33 1016.62 1017.07 1017.63 1018.12 1018.46 1019.00 1019.37 1019.15 1019.61 1019.97 1020.11 1020.30 1020.36 1020.64 1020.91 1021.24 1021.56 1021.87 1022.46 1022.82 1023.22 1023.88 1024.61 1025.44 1026.21 1025.69 1025.60 1026.11 1026.34 1025.84 1025.89 1025.83 1025.79 1025.50 1025.71 1025.45 1025.75 1025.83 1025.87
1016.02 1016.02 1016.08 1016.22 1016.49 1016.80 1017.30 1017.76 1018.29 1018.77 1018.89 1019.13 1019.40 1019.66 1019.90 1020.07 1020.12 1020.08 1020.21 1020.51 1020.80 1021.15 1021.33 1021.89 1022.60 1023.17 1023.39 1023.87 1024.26 1024.65 1024.93 1025.52 1025.71 1026.26 1025.19 1025.31 1025.22 1025.20 1024.52 1024.88 1025.15 1025.01 1025.40
1016.60 1016.42 1016.49 1016.67 1016.92 1017.08 1017.31 1017.58 1018.03 1018.47 1018.85 1019.26 1019.56 1019.80 1019.81 1019.93 1020.05 1020.12 1020.01 1019.90 1020.03 1020.41 1020.74 1020.98 1021.32 1021.75 1022.10 1022.40 1022.65 1023.06 1023.06 1023.53 1023.70 1024.37 1024.44 1023.95 1024.34 1023.84 1023.61 1023.99 1023.74 1024.16 1024.03
Wind_Speed
3 4 9 9 11 11 12 11 12 11 12 12 14 16 17 18 18 17 16 16 15 17 17 18 17 16 18 20 20 21 21 21 19 18 17 18 19 20 20 18 15 13 21
8 6 8 10 12 11 12 10 10 10 12 12 13 17 17 17 16 17 16 14 15 16 15 17 18 18 17 18 18 18 19 18 16 15 15 15 17 19 19 16 17 18 21
9 6 6 10 12 10 9 11 11 11 11 12 12 17 17 16 16 16 15 13 16 14 14 15 18 17 17 17 17 19 18 16 13 11 11 6 10 19 21 22 22 22 22
10 7 6 12 12 11 11 11 10 9 10 12 13 16 16 15 15 15 15 13 15 14 16 14 18 17 16 16 16 17 16 13 14 13 9 8 12 23 22 21 22 21 21
8 6 6 10 12 11 11 11 10 10 10 11 12 15 16 14 14 14 13 12 13 14 14 14 17 16 16 16 15 16 15 16 16 11 9 7 8 16 20 19 18 20 20
7 6 9 12 13 13 11 12 12 12 11 11 11 15 15 13 13 13 13 11 11 12 11 13 14 15 16 16 13 15 18 17 14 9 8 12 9 17 17 17 19 19 19
6 6 7 11 13 13 12 12 12 12 12 11 12 14 15 13 12 13 13 11 11 12 10 12 14 15 14 12 14 17 17 16 10 8 7 6 8 15 17 17 16 17 16
10 7 6 9 10 11 11 11 10 11 11 10 11 13 12 11 12 12 13 11 12 11 12 11 14 13 13 13 15 16 14 12 9 6 6 8 14 16 15 16 15 15 15
7 8 6 7 8 10 10 10 10 9 10 10 9 9 10 10 10 11 11 11 12 11 12 13 12 13 14 14 14 14 13 12 7 5 6 5 13 14 14 13 13 13 14
6 6 7 6 6 6 6 8 9 9 9 9 9 10 10 9 9 9 8 8 11 10 11 12 12 13 13 14 14 13 13 12 7 6 4 6 14 12 12 11 12 13 13
4 6 6 7 6 6 6 6 7 9 8 8 8 9 7 5 5 6 6 7 10 10 11 12 12 12 12 12 12 11 10 4 5 4 3 13 10 11 10 10 11 11 12
12 8 7 8 8 6 5 6 5 5 5 5 5 6 4 5 4 5 5 7 9 8 10 11 11 10 8 4 4 7 3 5 4 2 4 12 10 9 9 9 9 10 10
13 9 7 8 8 10 7 6 3 3 3 3 6 5 5 4 3 3 3 3 3 6 3 5 5 3 5 4 4 4 4 4 2 2 7 14 9 8 9 7 7 8 8
9 11 8 8 11 11 8 7 5 4 3 3 4 6 4 3 3 3 3 3 3 2 4 3 2 3 4 4 5 5 4 3 2 0 3 10 14 9 8 8 7 7 7
10 9 9 9 11 11 10 7 6 6 4 4 4 5 4 4 4 4 3 3 3 3 3 3 3 3 3 3 4 5 5 4 6 3 2 9 11 13 8 7 7 7 7
10 11 9 10 9 12 11 11 7 6 6 4 4 5 6 5 4 4 4 4 3 3 3 4 5 4 3 2 3 4 5 4 5 5 4 5 13 16 12 9 9 9 9
8 8 11 11 10 11 13 12 9 7 6 6 5 6 7 6 6 6 4 4 4 4 4 2 1 1 3 2 3 2 3 4 5 5 4 3 5 12 14 14 13 12 12
7 11 10 9 11 11 10 10 9 9 8 7 7 7 10 9 8 6 5 5 4 4 4 4 2 1 1 2 2 3 2 3 3 3 3 3 3 4 9 12 14 14 15
10 8 10 11 13 12 10 8 8 9 10 9 9 7 12 12 10 8 7 6 6 5 5 4 2 4 3 2 1 1 2 3 3 2 5 5 5 5 4 8 13 14 15
8 9 10 10 11 11 7 5 4 4 6 6 8 8 10 10 12 10 7 7 7 6 5 5 4 2 1 3 1 1 3 3 4 4 5 4 5 6 6 7 5 4 13
8 9 12 11 12 9 8 8 8 8 7 6 6 9 10 8 11 12 8 8 8 9 11 9 4 5 3 4 2 2 3 5 6 7 6 5 6 7 6 5 5 5 5
10 12 10 13 12 12 10 8 5 7 7 7 6 7 11 11 11 10 10 9 10 7 9 10 10 4 3 7 5 3 3 3 7 10 5 7 10 5 6 6 5 7 7
8 10 12 14 12 12 12 4 3 3 2 3 3 6 9 10 11 12 12 11 11 10 9 11 11 12 8 6 7 5 2 8 0 2 11 9 9 7 7 7 6 7 6
7 6 8 7 8 8 9 8 10 10 11 9 6 4 5 9 11 11 12 12 12 10 11 11 10 10 8 8 4 9 4 3 4 3 3 5 8 9 11 8 8 9 8
6 2 5 6 7 7 9 9 7 7 4 1 3 5 6 6 9 11 11 11 11 9 11 11 10 12 11 8 9 3 11 5 2 4 10 5 1 8 10 8 8 8 9
6 6 3 2 2 5 7 7 8 8 6 4 3 4 4 3 4 6 8 8 8 9 10 10 13 15 14 13 10 10 8 6 9 9 11 13 8 5 8 9 10 11 9
Wind_Direction
186 164 134 137 127 118 118 112 104 97 110 100 97 108 104 96 92 87 87 88 87 88 84 87 75 72 69 72 75 77 77 76 78 78 78 79 81 81 80 77 73 72 76
137 151 146 145 128 125 119 120 110 110 109 102 101 105 103 97 92 92 90 91 92 87 84 86 88 84 83 81 79 81 84 84 79 82 74 81 87 85 84 88 89 86 85
140 145 142 139 125 123 131 118 118 115 117 111 113 108 102 99 96 96 96 100 99 93 96 100 98 92 91 89 92 93 86 83 81 73 63 63 73 82 82 79 77 79 76
141 142 139 147 134 132 125 119 115 118 117 120 107 109 104 101 100 99 101 109 106 98 89 100 99 95 95 97 95 98 95 93 73 67 62 57 74 74 75 70 72 70 71
137 145 144 141 137 130 121 114 116 121 116 114 103 110 106 101 100 100 102 111 108 94 95 97 100 97 100 98 103 96 91 66 61 62 58 60 70 76 78 71 72 71 73
140 142 151 145 135 131 129 134 131 123 119 113 105 110 105 102 104 103 104 110 109 89 98 105 104 101 107 109 109 89 83 79 67 60 51 59 67 79 80 78 73 73 73
141 141 149 148 146 144 143 141 139 132 126 124 111 111 111 111 112 111 109 108 103 88 98 114 109 108 110 105 92 87 83 72 72 55 60 73 82 90 90 88 85 82 82
150 149 146 152 149 149 148 144 141 135 129 129 125 123 121 119 120 121 118 121 113 108 107 109 105 110 107 93 85 84 77 84 70 62 53 74 86 87 85 86 90 88 88
148 150 149 154 157 151 152 146 140 137 129 126 121 116 106 117 126 121 121 127 121 117 117 103 104 98 92 91 90 87 79 80 74 60 62 79 89 94 93 92 94 93 91
150 156 154 150 156 150 151 144 140 136 127 126 109 110 112 113 108 111 105 130 123 118 114 113 109 107 104 103 103 98 99 89 88 81 70 93 96 97 101 101 97 95 95
160 165 157 155 155 149 148 149 140 138 131 126 120 119 104 113 114 111 126 129 123 130 128 115 110 105 97 89 93 101 93 93 97 97 90 102 104 102 99 102 98 100 100
188 184 174 163 162 149 148 150 152 141 147 140 137 140 124 128 134 125 128 114 120 129 124 123 117 105 90 82 78 86 88 99 94 93 118 103 112 107 106 100 106 105 106
190 188 178 173 167 169 167 165 146 146 142 148 154 147 136 128 118 109 101 93 93 82 70 95 98 90 107 110 99 103 110 100 103 112 134 122 118 115 121 127 120 119 119
180 186 180 174 178 179 177 178 165 166 154 158 169 153 140 132 128 134 129 132 126 118 110 104 99 110 108 110 127 131 145 144 121 97 157 138 145 142 147 148 153 143 138
186 186 185 173 182 185 182 181 176 183 174 168 166 162 145 145 161 148 151 159 156 142 142 133 132 136 138 139 139 154 167 173 146 166 181 158 156 142 168 174 176 171 165
194 189 181 185 181 185 188 190 186 185 182 166 173 176 163 159 158 161 166 180 176 167 184 168 170 172 172 153 181 184 184 187 160 176 196 190 176 156 178 202 197 192 188
195 182 186 185 181 184 192 194 195 193 186 183 183 175 174 170 172 172 171 190 193 170 160 182 179 118 153 170 192 264 237 213 183 197 207 212 204 174 179 204 205 202 205
183 189 185 187 186 189 190 189 195 200 202 198 189 186 187 186 179 178 183 201 175 165 167 164 150 95 214 214 198 196 225 295 302 304 303 269 264 224 172 208 206 219 211
198 183 192 187 191 192 191 187 190 191 200 203 205 193 189 189 185 182 192 196 169 174 181 166 163 161 181 209 231 299 255 223 226 246 241 243 257 271 200 200 213 220 226
199 197 194 194 197 193 184 177 177 176 199 191 199 198 195 191 187 191 194 185 171 175 185 186 170 139 173 160 120 341 303 294 274 223 242 246 248 236 239 184 186 227 211
201 197 194 188 194 181 187 195 209 212 210 205 197 192 199 204 196 193 195 192 188 188 194 191 150 183 157 146 106 236 255 241 241 260 250 212 238 251 255 227 193 182 222
213 210 202 206 189 194 198 202 195 198 219 218 205 201 201 198 196 197 202 197 197 198 196 182 184 161 159 181 158 107 280 282 234 227 221 243 240 206 248 252 227 201 195
222 208 206 208 201 199 202 127 99 81 86 140 190 205 209 204 201 197 205 204 194 198 203 198 195 196 201 192 200 160 141 235 119 201 228 221 225 238 221 231 239 241 217
253 221 218 198 193 198 182 186 200 214 223 225 216 212 198 207 217 216 209 208 201 199 208 204 198 203 196 199 229 233 237 136 248 289 220 249 233 222 233 222 217 228 229
7 308 229 199 184 171 181 190 196 209 221 160 174 192 206 202 217 221 218 213 205 206 213 201 195 202 206 202 206 167 224 222 189 245 267 256 206 249 235 222 224 220 226
26 38 37 154 155 165 176 180 186 201 202 184 200 227 222 216 220 232 235 232 217 211 210 203 202 205 209 216 210 222 201 180 211 212 239 247 251 237 220 224 206 227 209